[[{"header":{"parameterUnit":"m.s-1","parameterCategory":1,"la1":30.2991,"la2":30.254,"lo1":-89.0895,"lo2":-89.0444,"dy":0.0017,"dx":0.0017,"nx":28,"ny":28,"refTime":"2023-08-16T09:00:00:Z","depth":0,"parameterNumber":2,"parameterNumberName":"U-component_of_WINDS"},"data":[0,0,0,0,0,0,0,0,0,0,0,0,0,0,0,0,0,0,0,0,0,0,0,0,0,0,0,0,0,0,0,0,0,0,0,0,0,0,0,0,0,0,0,0,0,0,0,0,0,0,0,0,0,0,0,0,0,0,1.2784,1.2785,0,1.2901,1.2902,1.2904,1.2959,1.2959,1.2959,1.2959,1.3079,1.3082,1.3085,0,0,0,0,0,0,0,0,0,0,0,0,0,1.2607,1.261,1.2784,1.2785,1.2787,1.2901,1.2902,1.2904,1.2959,1.2959,1.2959,1.2959,1.3078,1.3082,1.3086,0,0,0,0,0,0,0,0,0,0,0,0,0,1.27,1.2611,1.2783,1.2828,1.2833,1.29,1.2902,1.2904,1.2959,1.2959,1.2959,1.2959,1.3077,1.3081,1.3086,1.3118,0,0,1.3101,1.3103,0,0,0,0,0,0,0,0,1.2695,1.2706,1.282,1.2825,1.2831,1.2915,1.2884,1.2976,1.2959,1.2911,1.2959,1.2959,1.3025,1.3034,1.3056,1.3123,1.3129,1.3101,1.3104,1.3106,1.3108,0,0,0,0,0,0,0,1.2688,1.2702,1.283,1.2822,1.2828,1.2842,1.2855,1.2902,1.2967,1.2916,1.292,1.2933,1.3028,1.3051,1.3059,1.313,1.3101,1.3106,1.3109,1.311,1.323,1.323,0,0,0,0,0,0,1.2674,1.2696,1.2826,1.2834,1.2761,1.2845,1.286,1.2888,1.2967,1.2979,1.2933,1.2935,1.3043,1.3053,1.3063,1.3106,1.3106,1.3111,1.3114,1.323,1.323,1.323,0,0,0,0,0,0,1.267,1.2686,1.2822,1.2766,1.2784,1.2848,1.288,1.2891,1.2914,1.298,1.2992,1.2945,1.3043,1.3057,1.3104,1.3111,1.3113,1.3118,1.3229,1.323,1.323,1.3191,0,0,0,0,0,0,1.2665,1.2684,1.2697,1.2766,1.2787,1.286,1.288,1.2893,1.2923,1.2927,1.2994,1.3005,1.3044,1.3096,1.3109,1.3118,1.3121,1.3229,1.3229,1.323,1.3192,1.319,1.3188,0,0,0,0,0,1.2659,1.2681,1.2697,1.2713,1.2805,1.286,1.2873,1.2917,1.2923,1.2936,1.2978,1.3003,1.3108,1.3101,1.3115,1.3126,1.3229,1.3229,1.323,1.3193,1.319,1.3188,0,0,0,0,0,0,1.2611,1.2691,1.271,1.2755,1.28,1.287,1.2888,1.2913,1.2957,1.2959,1.3012,1.3027,1.3069,1.3102,1.3093,1.316,1.3171,1.3174,1.3137,1.3136,1.3134,1.3125,1.3125,0,0,0,0,0,1.2606,1.2644,1.2712,1.2746,1.2768,1.2824,1.285,1.288,1.2929,1.2948,1.2994,1.3041,1.3084,1.3112,1.3155,1.3197,1.3212,1.3211,1.3209,1.3207,1.321,1.3234,1.3235,1.3232,1.3232,1.3232,0,0,1.2595,1.2644,1.2665,1.2737,1.2776,1.2815,1.284,1.288,1.2909,1.2955,1.3002,1.3037,1.3092,1.3137,1.3159,1.3166,1.3214,1.3208,1.3206,1.321,1.3235,1.3235,1.3235,1.3232,1.3232,1.3232,0,0,1.2596,1.2637,1.2669,1.2707,1.2766,1.2803,1.2811,1.2876,1.2901,1.295,1.2984,1.302,1.3094,1.3132,1.3161,1.3176,1.32,1.3188,1.3179,1.3202,1.3203,1.3203,1.3209,1.321,1.3191,1.3191,1.3191,0,1.2576,1.2636,1.2683,1.2721,1.2752,1.2795,1.2828,1.2863,1.2932,1.2952,1.2959,1.3052,1.3093,1.3147,1.315,1.3172,1.3182,1.3181,1.3199,1.32,1.3201,1.3207,1.3209,1.3189,1.3189,1.3189,1.3189,0,1.2608,1.2649,1.2669,1.2735,1.2768,1.2803,1.2855,1.2882,1.2909,1.2945,1.2994,1.3044,1.3098,1.3113,1.314,1.3171,1.3174,1.3189,1.32,1.3198,1.3205,1.3207,1.3186,1.3187,1.3187,1.3188,0,0,1.2583,1.2674,1.2681,1.2711,1.2779,1.2811,1.2848,1.2902,1.2924,1.2971,1.3003,1.3064,1.3079,1.3112,1.3143,1.3163,1.3172,1.3176,1.3178,1.3174,1.3209,1.3198,1.32,1.3188,1.3189,1.3189,1.3205,0,1.2594,1.2663,1.2706,1.2757,1.2796,1.2837,1.2869,1.2914,1.2948,1.2986,1.3024,1.3067,1.3083,1.3103,1.3125,1.3166,1.318,1.3165,1.3219,1.3221,1.3204,1.3203,1.3191,1.3203,1.3208,1.3208,1.3208,0,1.2616,1.2661,1.2717,1.278,1.2798,1.2826,1.2878,1.2914,1.2965,1.2989,1.3025,1.3056,1.3097,1.3105,1.3161,1.3151,1.3175,1.3199,1.32,1.3207,1.3215,1.321,1.3208,1.321,1.3213,1.3212,1.3212,0,1.2592,1.2667,1.271,1.2735,1.2809,1.2828,1.286,1.2912,1.2941,1.2986,1.3006,1.3055,1.3082,1.312,1.3164,1.3165,1.3216,1.3227,1.3237,1.3236,1.3247,1.3245,1.3248,1.3261,1.3261,1.3261,1.3261,0,1.26,1.2632,1.27,1.2727,1.2764,1.2813,1.2849,1.2884,1.2929,1.2963,1.3001,1.3032,1.3088,1.3125,1.316,1.3202,1.3213,1.3234,1.3243,1.3231,1.3228,1.3248,1.3248,1.3262,1.3261,1.3261,1.3261,0,1.258,1.2627,1.2677,1.2743,1.276,1.2785,1.2842,1.2869,1.2905,1.2948,1.296,1.3018,1.3064,1.3111,1.3174,1.3197,1.3238,1.325,1.3221,1.3226,1.3233,1.3232,1.325,1.3255,1.3263,1.3263,1.3263,0,1.2582,1.2608,1.2677,1.2703,1.2734,1.2774,1.2804,1.2853,1.2882,1.2943,1.2962,1.3012,1.3054,1.3126,1.3173,1.3221,1.3234,1.3237,1.3242,1.3229,1.3235,1.3233,1.3236,1.3236,1.3235,1.3235,1.3235,0,1.2581,1.2603,1.2645,1.2695,1.273,1.2771,1.2815,1.2833,1.289,1.2921,1.2969,1.3002,1.3065,1.3114,1.3167,1.32,1.3227,1.3233,1.3238,1.3226,1.3208,1.3218,1.3216,1.3232,1.3233,1.3233,1.3233,1.3233,1.2572,1.2597,1.265,1.2695,1.2733,1.2772,1.2801,1.2841,1.2882,1.2938,1.2964,1.3012,1.3062,1.3137,1.3169,1.3207,1.3215,1.3222,1.3224,1.3225,1.3222,1.3201,1.3217,1.3217,1.3217,1.3217,1.3218,0,1.2573,1.2609,1.265,1.271,1.2745,1.2767,1.2816,1.2844,1.2886,1.2931,1.2972,1.3027,1.3074,1.3124,1.3174,1.3195,1.3208,1.3206,1.3206,1.3213,1.3212,1.3203,1.3195,1.3195,1.3195,1.3195,1.3195,1.3195,1.2578,1.2622,1.265,1.2712,1.2748,1.2795,1.2821,1.2858,1.2894,1.2953,1.2993,1.3025,1.3073,1.3126,1.317,1.3184,1.3201,1.3195,1.3212,1.3211,1.3213,1.3214,1.3206,1.3198,1.3198,1.321,1.321,1.321]},{"header":{"parameterUnit":"m.s-1","parameterCategory":1,"la1":30.2991,"la2":30.254,"lo1":-89.0895,"lo2":-89.0444,"dy":0.0017,"dx":0.0017,"nx":28,"ny":28,"refTime":"2023-08-16T09:00:00:Z","depth":0,"parameterNumber":3,"parameterNumberName":"V-component_of_WINDS"},"data":[0,0,0,0,0,0,0,0,0,0,0,0,0,0,0,0,0,0,0,0,0,0,0,0,0,0,0,0,0,0,0,0,0,0,0,0,0,0,0,0,0,0,0,0,0,0,0,0,0,0,0,0,0,0,0,0,0,0,2.5969,2.5969,0,2.5963,2.5963,2.5963,2.5965,2.5965,2.5965,2.5965,2.5957,2.5957,2.5956,0,0,0,0,0,0,0,0,0,0,0,0,0,2.598,2.598,2.5969,2.5969,2.5969,2.5963,2.5963,2.5963,2.5965,2.5965,2.5965,2.5965,2.5957,2.5957,2.5956,0,0,0,0,0,0,0,0,0,0,0,0,0,2.5975,2.598,2.5969,2.5969,2.5969,2.5963,2.5963,2.5963,2.5964,2.5965,2.5965,2.5965,2.5957,2.5957,2.5956,2.5949,0,0,2.5955,2.5954,0,0,0,0,0,0,0,0,2.5975,2.5975,2.5969,2.5969,2.5969,2.5965,2.5964,2.5958,2.5964,2.5966,2.5965,2.5965,2.5959,2.5959,2.5957,2.5949,2.5948,2.5955,2.5954,2.5954,2.5954,0,0,0,0,0,0,0,2.5976,2.5975,2.5967,2.5969,2.5969,2.5969,2.5968,2.5963,2.5962,2.5966,2.5966,2.5965,2.5959,2.5957,2.5957,2.5948,2.5955,2.5954,2.5954,2.5954,2.5931,2.5931,0,0,0,0,0,0,2.5976,2.5975,2.5967,2.5966,2.5973,2.5968,2.5968,2.5966,2.5962,2.5961,2.5965,2.5966,2.5958,2.5957,2.5956,2.5946,2.5954,2.5954,2.5953,2.5931,2.5931,2.5931,0,0,0,0,0,0,2.5977,2.5976,2.5967,2.5971,2.597,2.5968,2.5966,2.5966,2.5964,2.5961,2.5961,2.5964,2.5958,2.5957,2.595,2.5946,2.5953,2.5953,2.5932,2.5931,2.5931,2.5927,0,0,0,0,0,0,2.5977,2.5976,2.5974,2.5971,2.597,2.5962,2.5966,2.5965,2.5963,2.5963,2.596,2.5959,2.5958,2.5951,2.595,2.5945,2.5953,2.5932,2.5932,2.5931,2.5927,2.5926,2.5925,0,0,0,0,0,2.5977,2.5973,2.5974,2.5973,2.5967,2.5962,2.5961,2.5961,2.5963,2.596,2.5958,2.5959,2.5947,2.595,2.5949,2.5944,2.5932,2.5932,2.5931,2.5928,2.5926,2.5925,0,0,0,0,0,0,2.5976,2.5973,2.5973,2.5968,2.5965,2.5962,2.5959,2.596,2.5956,2.5956,2.5955,2.5954,2.5947,2.5945,2.5949,2.5936,2.594,2.5939,2.5938,2.5936,2.5935,2.5936,2.5952,0,0,0,0,0,2.5975,2.5971,2.5969,2.5964,2.5963,2.5961,2.5959,2.5958,2.5955,2.5954,2.5952,2.5948,2.5943,2.594,2.5935,2.5927,2.5925,2.5923,2.5922,2.5921,2.592,2.5913,2.5912,2.5929,2.5929,2.5929,0,0,2.5972,2.597,2.5968,2.5964,2.5961,2.5957,2.596,2.5956,2.5952,2.5953,2.5946,2.5944,2.594,2.5932,2.5928,2.593,2.5915,2.592,2.592,2.5919,2.5913,2.5911,2.591,2.5928,2.5928,2.5928,0,0,2.5966,2.5965,2.596,2.5958,2.5954,2.5953,2.5951,2.5948,2.5946,2.594,2.594,2.5935,2.5927,2.5923,2.592,2.591,2.591,2.5909,2.5904,2.5897,2.5896,2.5895,2.5889,2.5888,2.5908,2.5908,2.5908,0,2.5964,2.5958,2.5958,2.5953,2.595,2.5951,2.5945,2.5942,2.5937,2.5935,2.5937,2.5925,2.5923,2.5913,2.591,2.5908,2.5905,2.5909,2.5896,2.5895,2.5894,2.5889,2.5887,2.5908,2.5908,2.5908,2.5908,0,2.5955,2.595,2.5947,2.5942,2.5938,2.5933,2.5931,2.5927,2.5927,2.5925,2.5916,2.5913,2.5907,2.5904,2.5904,2.5894,2.5895,2.5897,2.59,2.5892,2.5887,2.5885,2.5907,2.5907,2.5907,2.5907,0,0,2.5948,2.5942,2.594,2.5937,2.5932,2.5928,2.5922,2.5916,2.5912,2.5908,2.5902,2.5894,2.5895,2.5892,2.5891,2.5885,2.5875,2.5887,2.5887,2.5884,2.5861,2.5859,2.5857,2.5875,2.5875,2.5875,2.5861,0,2.5941,2.5931,2.5929,2.592,2.5915,2.5914,2.5909,2.5904,2.5902,2.5896,2.5893,2.5887,2.5889,2.5887,2.5882,2.5878,2.5871,2.5879,2.5868,2.5868,2.5869,2.5855,2.5854,2.5841,2.586,2.5859,2.5859,0,2.5931,2.5926,2.5917,2.591,2.5908,2.5903,2.5896,2.5892,2.5886,2.5884,2.5879,2.5878,2.587,2.5874,2.5862,2.5867,2.5863,2.586,2.5859,2.5858,2.5863,2.5852,2.5837,2.5835,2.5856,2.5857,2.5857,0,2.5926,2.5917,2.591,2.5907,2.59,2.5896,2.5893,2.5887,2.5883,2.5877,2.5873,2.5866,2.5862,2.5856,2.5852,2.5856,2.5839,2.5844,2.5837,2.5836,2.5833,2.5833,2.5816,2.5832,2.5832,2.5832,2.5832,0,2.5918,2.5911,2.5907,2.5902,2.5894,2.5892,2.5884,2.588,2.5875,2.5868,2.5867,2.5861,2.5857,2.585,2.5847,2.5836,2.5834,2.5832,2.5831,2.5831,2.5831,2.5828,2.5828,2.5831,2.5831,2.5831,2.5831,0,2.5911,2.5908,2.5899,2.5893,2.5891,2.5885,2.5879,2.5873,2.587,2.5862,2.586,2.5854,2.5845,2.5841,2.583,2.5828,2.5815,2.5815,2.5817,2.5816,2.5809,2.5809,2.5788,2.5784,2.5803,2.5803,2.5803,0,2.5906,2.5901,2.5893,2.5889,2.5885,2.5879,2.5874,2.5871,2.5865,2.5857,2.5852,2.5843,2.5835,2.5821,2.5815,2.5806,2.5805,2.5798,2.5804,2.5803,2.5803,2.5803,2.5801,2.5797,2.5797,2.5797,2.5797,0,2.5896,2.5894,2.5888,2.588,2.5875,2.5868,2.5862,2.5858,2.5854,2.5848,2.5838,2.5833,2.582,2.5811,2.5801,2.5796,2.5795,2.5795,2.5792,2.5792,2.5793,2.5791,2.5813,2.5795,2.5795,2.5796,2.5796,2.5796,2.5889,2.5884,2.5877,2.587,2.5864,2.5858,2.5852,2.5847,2.584,2.583,2.5828,2.5817,2.5809,2.5795,2.579,2.5781,2.5782,2.5779,2.5778,2.5777,2.5776,2.5795,2.5779,2.5779,2.5779,2.5779,2.5779,0,2.5879,2.5874,2.5867,2.5858,2.5851,2.5851,2.5843,2.5837,2.5828,2.5821,2.5813,2.5801,2.579,2.5783,2.5772,2.5766,2.5765,2.5763,2.5763,2.5762,2.5776,2.5778,2.5764,2.5764,2.5764,2.5764,2.5764,2.5764,2.5872,2.5863,2.586,2.5846,2.5841,2.5831,2.5827,2.582,2.5814,2.58,2.5792,2.5787,2.5779,2.5767,2.5757,2.5755,2.575,2.5748,2.5746,2.5759,2.5761,2.5762,2.5765,2.5748,2.5748,2.5732,2.5732,2.5732]}]]